Time,TemperatureF,DewpointF,PressureIn,WindDirection,WindDirectionDegrees,WindSpeedMPH,WindSpeedGustMPH,Humidity,HourlyPrecipIn,Conditions,Clouds,dailyrainin,SoftwareType,DateUTC
2013-11-11 00:01:00,37.4,31.9,29.77,WNW,293,1.8,6.5,80,0.00,,,0.00,WUHU216HW,2013-11-11 05:01:00,
2013-11-11 00:06:00,37.3,31.7,29.78,West,270,4.9,10.1,80,0.00,,,0.00,WUHU216HW,2013-11-11 05:06:00,
2013-11-11 00:11:00,37.1,31.5,29.78,West,270,3.8,10.1,80,0.00,,,0.00,WUHU216HW,2013-11-11 05:11:00,
2013-11-11 00:16:00,37.1,31.5,29.78,WNW,293,4.0,7.8,80,0.00,,,0.00,WUHU216HW,2013-11-11 05:16:00,
2013-11-11 00:21:00,37.1,31.5,29.78,WSW,248,4.3,7.8,80,0.00,,,0.00,WUHU216HW,2013-11-11 05:21:00,
2013-11-11 00:26:00,37.1,31.5,29.78,SW,225,2.5,6.5,80,0.00,,,0.00,WUHU216HW,2013-11-11 05:26:00,
2013-11-11 00:31:00,37.1,31.5,29.78,West,270,5.6,6.9,80,0.00,,,0.00,WUHU216HW,2013-11-11 05:31:00,
2013-11-11 00:36:00,37.1,31.5,29.79,West,270,4.0,6.9,80,0.00,,,0.00,WUHU216HW,2013-11-11 05:36:00,
2013-11-11 00:41:00,36.9,31.6,29.79,WSW,248,3.6,9.4,81,0.00,,,0.00,WUHU216HW,2013-11-11 05:41:00,
2013-11-11 00:46:00,36.9,31.6,29.79,WSW,248,6.9,9.4,81,0.00,,,0.00,WUHU216HW,2013-11-11 05:46:00,
2013-11-11 00:51:00,36.7,31.4,29.80,NNW,338,2.7,9.2,81,0.00,,,0.00,WUHU216HW,2013-11-11 05:51:00,
2013-11-11 00:56:00,36.7,31.4,29.80,West,270,5.1,8.1,81,0.00,,,0.00,WUHU216HW,2013-11-11 05:56:00,
2013-11-11 01:01:00,36.5,31.2,29.80,West,270,5.6,7.6,81,0.00,,,0.00,WUHU216HW,2013-11-11 06:01:00,
2013-11-11 01:06:00,36.5,31.0,29.81,West,270,4.0,6.3,80,0.00,,,0.00,WUHU216HW,2013-11-11 06:06:00,
2013-11-11 01:11:00,36.5,31.2,29.81,SSW,203,2.0,6.7,81,0.00,,,0.00,WUHU216HW,2013-11-11 06:11:00,
2013-11-11 01:16:00,36.4,31.1,29.81,NW,315,5.8,9.2,81,0.00,,,0.00,WUHU216HW,2013-11-11 06:16:00,
2013-11-11 01:21:00,36.4,31.1,29.82,South,180,6.7,9.2,81,0.00,,,0.00,WUHU216HW,2013-11-11 06:21:00,
2013-11-11 01:26:00,36.4,31.1,29.82,West,270,1.1,6.7,81,0.00,,,0.00,WUHU216HW,2013-11-11 06:26:00,
2013-11-11 01:31:00,36.4,31.1,29.82,WSW,248,2.5,6.7,81,0.00,,,0.00,WUHU216HW,2013-11-11 06:31:00,
2013-11-11 01:36:00,36.4,31.1,29.82,SW,225,1.8,4.0,81,0.00,,,0.00,WUHU216HW,2013-11-11 06:36:00,
2013-11-11 01:41:00,36.4,31.1,29.83,West,270,1.8,3.8,81,0.00,,,0.00,WUHU216HW,2013-11-11 06:41:00,
2013-11-11 01:46:00,36.2,30.9,29.83,West,270,2.0,4.5,81,0.00,,,0.00,WUHU216HW,2013-11-11 06:46:00,
2013-11-11 01:51:00,36.2,30.9,29.83,NW,315,7.6,7.6,81,0.00,,,0.00,WUHU216HW,2013-11-11 06:51:00,
2013-11-11 01:56:00,36.2,30.9,29.83,WSW,248,2.7,7.6,81,0.00,,,0.00,WUHU216HW,2013-11-11 06:56:00,
2013-11-11 02:01:00,36.0,30.7,29.83,West,270,1.8,7.6,81,0.00,,,0.00,WUHU216HW,2013-11-11 07:01:00,
2013-11-11 02:06:00,36.0,30.7,29.84,NW,315,1.8,4.9,81,0.00,,,0.00,WUHU216HW,2013-11-11 07:06:00,
2013-11-11 02:11:00,36.0,30.7,29.84,ESE,113,0.0,2.9,81,0.00,,,0.00,WUHU216HW,2013-11-11 07:11:00,
2013-11-11 02:16:00,35.8,30.8,29.84,WNW,293,4.7,4.7,82,0.00,,,0.00,WUHU216HW,2013-11-11 07:16:00,
2013-11-11 02:21:00,35.8,30.5,29.84,WSW,248,1.8,5.1,81,0.00,,,0.00,WUHU216HW,2013-11-11 07:21:00,
2013-11-11 02:26:00,35.8,30.5,29.84,NNW,338,3.4,5.8,81,0.00,,,0.00,WUHU216HW,2013-11-11 07:26:00,
2013-11-11 02:31:00,35.8,30.5,29.84,WNW,293,5.4,5.8,81,0.00,,,0.00,WUHU216HW,2013-11-11 07:31:00,
2013-11-11 02:36:00,35.6,30.3,29.85,West,270,2.7,6.3,81,0.00,,,0.00,WUHU216HW,2013-11-11 07:36:00,
2013-11-11 02:41:00,35.6,30.3,29.85,West,270,2.7,6.3,81,0.00,,,0.00,WUHU216HW,2013-11-11 07:41:00,
2013-11-11 02:46:00,35.6,30.3,29.85,WNW,293,4.0,4.0,81,0.00,,,0.00,WUHU216HW,2013-11-11 07:46:00,
2013-11-11 02:51:00,35.6,30.3,29.85,WNW,293,0.4,4.0,81,0.00,,,0.00,WUHU216HW,2013-11-11 07:51:00,
2013-11-11 02:56:00,35.6,30.3,29.85,NNE,23,1.6,4.5,81,0.00,,,0.00,WUHU216HW,2013-11-11 07:56:00,
2013-11-11 03:01:00,35.6,30.3,29.85,NNW,338,2.2,5.4,81,0.00,,,0.00,WUHU216HW,2013-11-11 08:01:00,
2013-11-11 03:06:00,35.5,30.2,29.86,NNW,338,1.3,5.4,81,0.00,,,0.00,WUHU216HW,2013-11-11 08:06:00,
2013-11-11 03:11:00,35.5,30.2,29.86,SSE,158,4.0,7.6,81,0.00,,,0.00,WUHU216HW,2013-11-11 08:11:00,
2013-11-11 03:16:00,35.5,30.2,29.86,WNW,293,4.5,7.6,81,0.00,,,0.00,WUHU216HW,2013-11-11 08:16:00,
2013-11-11 03:21:00,35.5,29.9,29.87,NNW,338,2.5,6.9,80,0.00,,,0.00,WUHU216HW,2013-11-11 08:21:00,
2013-11-11 03:26:00,35.5,29.9,29.87,West,270,3.4,5.4,80,0.00,,,0.00,WUHU216HW,2013-11-11 08:26:00,
2013-11-11 03:31:00,35.5,29.5,29.87,West,270,8.5,10.5,79,0.00,,,0.00,WUHU216HW,2013-11-11 08:31:00,
2013-11-11 03:36:00,35.5,29.5,29.87,West,270,3.4,10.5,79,0.00,,,0.00,WUHU216HW,2013-11-11 08:36:00,
2013-11-11 03:41:00,35.5,29.3,29.88,WNW,293,1.8,11.2,78,0.00,,,0.00,WUHU216HW,2013-11-11 08:41:00,
2013-11-11 03:46:00,35.3,29.1,29.88,NNW,338,4.3,11.2,78,0.00,,,0.00,WUHU216HW,2013-11-11 08:46:00,
2013-11-11 03:51:00,35.3,29.1,29.89,North,0,4.0,6.3,78,0.00,,,0.00,WUHU216HW,2013-11-11 08:51:00,
2013-11-11 03:56:00,35.3,29.1,29.89,SW,225,1.6,4.7,78,0.00,,,0.00,WUHU216HW,2013-11-11 08:56:00,
2013-11-11 04:01:00,35.3,29.1,29.89,West,270,6.9,6.9,78,0.00,,,0.00,WUHU216HW,2013-11-11 09:01:00,
2013-11-11 04:06:00,35.1,28.9,29.90,West,270,1.8,12.3,78,0.00,,,0.00,WUHU216HW,2013-11-11 09:06:00,
2013-11-11 04:11:00,35.1,28.9,29.90,WNW,293,2.7,12.3,78,0.00,,,0.00,WUHU216HW,2013-11-11 09:11:00,
2013-11-11 04:16:00,34.9,29.0,29.90,WSW,248,4.7,8.5,79,0.00,,,0.00,WUHU216HW,2013-11-11 09:16:00,
2013-11-11 04:21:00,34.7,28.8,29.90,WNW,293,4.7,9.2,79,0.00,,,0.00,WUHU216HW,2013-11-11 09:21:00,
2013-11-11 04:26:00,34.7,28.8,29.90,WSW,248,6.0,9.2,79,0.00,,,0.00,WUHU216HW,2013-11-11 09:26:00,
2013-11-11 04:31:00,34.6,28.6,29.91,NW,315,7.4,7.4,79,0.00,,,0.00,WUHU216HW,2013-11-11 09:31:00,
2013-11-11 04:36:00,34.6,29.0,29.91,NW,315,4.3,7.4,80,0.00,,,0.00,WUHU216HW,2013-11-11 09:36:00,
2013-11-11 04:41:00,34.4,28.8,29.91,NW,315,2.9,9.4,80,0.00,,,0.00,WUHU216HW,2013-11-11 09:41:00,
2013-11-11 04:46:00,34.4,28.8,29.92,NNW,338,0.7,9.4,80,0.00,,,0.00,WUHU216HW,2013-11-11 09:46:00,
2013-11-11 04:51:00,34.2,28.6,29.92,North,0,4.3,7.4,80,0.00,,,0.00,WUHU216HW,2013-11-11 09:51:00,
2013-11-11 04:56:00,34.2,28.6,29.92,WSW,248,3.8,9.2,80,0.00,,,0.00,WUHU216HW,2013-11-11 09:56:00,
2013-11-11 05:01:00,34.0,28.7,29.93,West,270,5.8,12.3,81,0.00,,,0.00,WUHU216HW,2013-11-11 10:01:00,
2013-11-11 05:06:00,33.8,28.5,29.93,NW,315,6.9,15.4,81,0.00,,,0.00,WUHU216HW,2013-11-11 10:06:00,
2013-11-11 05:11:00,33.8,28.3,29.93,WNW,293,5.1,15.4,80,0.00,,,0.00,WUHU216HW,2013-11-11 10:11:00,
2013-11-11 05:16:00,33.8,28.5,29.93,West,270,7.8,13.9,81,0.00,,,0.00,WUHU216HW,2013-11-11 10:16:00,
2013-11-11 05:21:00,33.8,28.3,29.94,WSW,248,8.7,11.2,80,0.00,,,0.00,WUHU216HW,2013-11-11 10:21:00,
2013-11-11 05:26:00,33.7,28.1,29.94,WSW,248,12.8,13.4,80,0.00,,,0.00,WUHU216HW,2013-11-11 10:26:00,
2013-11-11 05:31:00,33.7,28.1,29.95,West,270,8.1,13.4,80,0.00,,,0.00,WUHU216HW,2013-11-11 10:31:00,
2013-11-11 05:36:00,33.5,27.9,29.94,NW,315,2.5,13.4,80,0.00,,,0.00,WUHU216HW,2013-11-11 10:36:00,
2013-11-11 05:41:00,33.5,27.9,29.95,WSW,248,3.1,13.4,80,0.00,,,0.00,WUHU216HW,2013-11-11 10:41:00,
2013-11-11 05:46:00,33.5,27.9,29.95,WNW,293,4.9,12.3,80,0.00,,,0.00,WUHU216HW,2013-11-11 10:46:00,
2013-11-11 05:51:00,33.5,27.9,29.95,West,270,5.4,11.6,80,0.00,,,0.00,WUHU216HW,2013-11-11 10:51:00,
2013-11-11 05:56:00,33.5,27.9,29.96,West,270,5.8,12.8,80,0.00,,,0.00,WUHU216HW,2013-11-11 10:56:00,
2013-11-11 06:01:00,33.5,27.9,29.95,West,270,3.8,12.8,80,0.00,,,0.00,WUHU216HW,2013-11-11 11:01:00,
2013-11-11 06:06:00,33.3,27.8,29.96,West,270,4.3,11.0,80,0.00,,,0.00,WUHU216HW,2013-11-11 11:06:00,
2013-11-11 06:11:00,33.3,27.8,29.96,NW,315,6.3,11.0,80,0.00,,,0.00,WUHU216HW,2013-11-11 11:11:00,
2013-11-11 06:16:00,33.1,27.6,29.97,WNW,293,3.1,9.6,80,0.00,,,0.00,WUHU216HW,2013-11-11 11:16:00,
2013-11-11 06:21:00,33.3,27.8,29.97,WNW,293,4.3,10.3,80,0.00,,,0.00,WUHU216HW,2013-11-11 11:21:00,
2013-11-11 06:26:00,33.1,27.6,29.98,WNW,293,10.3,10.3,80,0.00,,,0.00,WUHU216HW,2013-11-11 11:26:00,
2013-11-11 06:31:00,33.1,27.6,29.98,WNW,293,2.0,10.3,80,0.00,,,0.00,WUHU216HW,2013-11-11 11:31:00,
2013-11-11 06:36:00,33.1,27.6,29.99,WNW,293,6.3,10.3,80,0.00,,,0.00,WUHU216HW,2013-11-11 11:36:00,
2013-11-11 06:41:00,33.1,27.6,29.99,WNW,293,6.0,9.8,80,0.00,,,0.00,WUHU216HW,2013-11-11 11:41:00,
2013-11-11 06:46:00,33.1,27.3,29.99,WNW,293,4.0,10.7,79,0.00,,,0.00,WUHU216HW,2013-11-11 11:46:00,
2013-11-11 06:51:00,33.1,27.6,29.99,WNW,293,1.8,10.7,80,0.00,,,0.00,WUHU216HW,2013-11-11 11:51:00,
2013-11-11 06:56:00,33.1,27.6,29.99,WNW,293,2.0,5.4,80,0.00,,,0.00,WUHU216HW,2013-11-11 11:56:00,
2013-11-11 07:01:00,33.1,27.6,30.00,WNW,293,2.9,5.4,80,0.00,,,0.00,WUHU216HW,2013-11-11 12:01:00,
2013-11-11 07:06:00,33.1,27.6,30.00,WNW,293,2.9,4.7,80,0.00,,,0.00,WUHU216HW,2013-11-11 12:06:00,
2013-11-11 07:11:00,33.1,27.6,30.00,WNW,293,0.7,5.4,80,0.00,,,0.00,WUHU216HW,2013-11-11 12:11:00,
2013-11-11 07:16:00,33.1,27.6,30.00,WNW,293,2.5,5.4,80,0.00,,,0.00,WUHU216HW,2013-11-11 12:16:00,
2013-11-11 07:21:00,32.9,27.5,30.00,WNW,293,2.5,2.7,80,0.00,,,0.00,WUHU216HW,2013-11-11 12:21:00,
2013-11-11 07:26:00,32.9,27.5,30.00,WNW,293,0.4,3.6,80,0.00,,,0.00,WUHU216HW,2013-11-11 12:26:00,
2013-11-11 07:31:00,33.1,27.6,30.00,WNW,293,1.6,4.0,80,0.00,,,0.00,WUHU216HW,2013-11-11 12:31:00,
2013-11-11 07:36:00,33.1,27.6,30.00,WNW,293,6.0,6.0,80,0.00,,,0.00,WUHU216HW,2013-11-11 12:36:00,
2013-11-11 07:41:00,33.1,27.6,30.01,WNW,293,4.3,6.0,80,0.00,,,0.00,WUHU216HW,2013-11-11 12:41:00,
2013-11-11 07:46:00,33.1,27.3,30.01,WNW,293,6.9,6.9,79,0.00,,,0.00,WUHU216HW,2013-11-11 12:46:00,
2013-11-11 07:51:00,33.1,27.0,30.01,WNW,293,3.4,6.9,78,0.00,,,0.00,WUHU216HW,2013-11-11 12:51:00,
2013-11-11 07:56:00,33.3,27.1,30.01,WNW,293,2.7,6.7,78,0.00,,,0.00,WUHU216HW,2013-11-11 12:56:00,
2013-11-11 08:01:00,33.3,27.1,30.00,WNW,293,4.5,5.8,78,0.00,,,0.00,WUHU216HW,2013-11-11 13:01:00,
2013-11-11 08:06:00,33.5,26.6,30.00,WNW,293,5.8,9.8,76,0.00,,,0.00,WUHU216HW,2013-11-11 13:06:00,
2013-11-11 08:11:00,33.3,26.5,30.00,WNW,293,5.4,9.8,76,0.00,,,0.00,WUHU216HW,2013-11-11 13:11:00,
2013-11-11 08:16:00,33.3,26.5,30.01,WNW,293,5.6,8.1,76,0.00,,,0.00,WUHU216HW,2013-11-11 13:16:00,
2013-11-11 08:21:00,33.1,26.3,30.01,WNW,293,4.3,7.2,76,0.00,,,0.00,WUHU216HW,2013-11-11 13:21:00,
2013-11-11 08:26:00,33.1,26.3,30.01,WNW,293,3.8,7.2,76,0.00,,,0.00,WUHU216HW,2013-11-11 13:26:00,
2013-11-11 08:31:00,33.1,26.3,30.01,WNW,293,3.4,4.5,76,0.00,,,0.00,WUHU216HW,2013-11-11 13:31:00,
2013-11-11 08:36:00,33.1,26.6,30.01,WNW,293,2.9,4.5,77,0.00,,,0.00,WUHU216HW,2013-11-11 13:36:00,
2013-11-11 08:41:00,33.1,26.3,30.01,WNW,293,4.5,6.9,76,0.00,,,0.00,WUHU216HW,2013-11-11 13:41:00,
2013-11-11 08:46:00,33.1,26.3,30.02,WNW,293,4.0,6.9,76,0.00,,,0.00,WUHU216HW,2013-11-11 13:46:00,
2013-11-11 08:51:00,33.1,26.3,30.02,WNW,293,3.4,6.3,76,0.00,,,0.00,WUHU216HW,2013-11-11 13:51:00,
2013-11-11 08:56:00,33.1,26.3,30.02,WNW,293,6.5,8.7,76,0.00,,,0.00,WUHU216HW,2013-11-11 13:56:00,
2013-11-11 09:01:00,33.1,26.3,30.02,WNW,293,2.9,8.7,76,0.00,,,0.00,WUHU216HW,2013-11-11 14:01:00,
2013-11-11 09:06:00,32.9,26.2,30.02,WNW,293,4.5,6.7,76,0.00,,,0.00,WUHU216HW,2013-11-11 14:06:00,
2013-11-11 09:11:00,32.9,26.2,30.02,WNW,293,5.4,7.8,76,0.00,,,0.00,WUHU216HW,2013-11-11 14:11:00,
2013-11-11 09:16:00,32.8,26.0,30.02,WNW,293,5.4,7.8,76,0.00,,,0.00,WUHU216HW,2013-11-11 14:16:00,
2013-11-11 09:21:00,32.8,26.0,30.02,WNW,293,4.5,7.6,76,0.00,,,0.00,WUHU216HW,2013-11-11 14:21:00,
2013-11-11 09:26:00,33.1,26.3,30.02,WNW,293,2.2,9.4,76,0.00,,,0.00,WUHU216HW,2013-11-11 14:26:00,
2013-11-11 09:31:00,33.1,26.0,30.02,West,270,8.1,9.4,75,0.00,,,0.00,WUHU216HW,2013-11-11 14:31:00,
2013-11-11 09:36:00,33.3,26.5,30.02,West,270,2.5,8.5,76,0.00,,,0.00,WUHU216HW,2013-11-11 14:36:00,
2013-11-11 09:41:00,33.5,26.6,30.02,SW,225,3.1,8.5,76,0.00,,,0.00,WUHU216HW,2013-11-11 14:41:00,
2013-11-11 09:46:00,33.5,26.3,30.02,WSW,248,6.7,6.9,75,0.00,,,0.00,WUHU216HW,2013-11-11 14:46:00,
2013-11-11 09:51:00,33.5,26.6,30.02,WSW,248,1.8,6.9,76,0.00,,,0.00,WUHU216HW,2013-11-11 14:51:00,
2013-11-11 09:56:00,33.5,26.6,30.02,WSW,248,4.3,6.7,76,0.00,,,0.00,WUHU216HW,2013-11-11 14:56:00,
2013-11-11 10:01:00,33.5,26.6,30.02,WNW,293,1.1,5.4,76,0.00,,,0.00,WUHU216HW,2013-11-11 15:01:00,
2013-11-11 10:06:00,33.7,26.8,30.02,WSW,248,2.2,4.5,76,0.00,,,0.00,WUHU216HW,2013-11-11 15:06:00,
2013-11-11 10:11:00,33.5,27.0,30.01,WSW,248,1.6,4.5,77,0.00,,,0.00,WUHU216HW,2013-11-11 15:11:00,
2013-11-11 10:16:00,33.7,27.5,30.01,WSW,248,3.8,6.5,78,0.00,,,0.00,WUHU216HW,2013-11-11 15:16:00,
2013-11-11 10:21:00,33.5,27.0,30.00,WSW,248,3.4,6.5,77,0.00,,,0.00,WUHU216HW,2013-11-11 15:21:00,
2013-11-11 10:26:00,33.5,27.3,30.01,WNW,293,5.4,7.6,78,0.00,,,0.00,WUHU216HW,2013-11-11 15:26:00,
2013-11-11 10:31:00,33.3,27.1,30.01,West,270,3.4,8.5,78,0.00,,,0.00,WUHU216HW,2013-11-11 15:31:00,
2013-11-11 10:37:00,33.1,27.0,30.00,West,270,2.5,8.5,78,0.00,,,0.00,WUHU216HW,2013-11-11 15:37:00,
2013-11-11 10:42:00,33.3,27.1,30.00,WSW,248,2.5,7.6,78,0.00,,,0.00,WUHU216HW,2013-11-11 15:42:00,
2013-11-11 10:47:00,33.3,26.8,30.01,West,270,5.4,9.4,77,0.00,,,0.00,WUHU216HW,2013-11-11 15:47:00,
2013-11-11 10:52:00,33.3,26.8,30.00,West,270,4.0,9.4,77,0.00,,,0.00,WUHU216HW,2013-11-11 15:52:00,
2013-11-11 10:57:00,33.3,27.1,30.00,West,270,2.7,5.6,78,0.00,,,0.00,WUHU216HW,2013-11-11 15:57:00,
2013-11-11 11:02:00,33.5,27.3,30.00,WSW,248,5.4,7.2,78,0.00,,,0.00,WUHU216HW,2013-11-11 16:02:00,
2013-11-11 11:07:00,33.7,27.1,30.00,West,270,1.8,7.2,77,0.00,,,0.00,WUHU216HW,2013-11-11 16:07:00,
2013-11-11 11:12:00,34.2,27.6,30.00,WSW,248,3.1,5.8,77,0.00,,,0.00,WUHU216HW,2013-11-11 16:12:00,
2013-11-11 11:17:00,34.7,27.9,30.00,SW,225,3.8,5.4,76,0.00,,,0.00,WUHU216HW,2013-11-11 16:17:00,
2013-11-11 11:22:00,35.1,27.9,30.00,WSW,248,5.6,6.9,75,0.00,,,0.00,WUHU216HW,2013-11-11 16:22:00,
2013-11-11 11:27:00,35.1,27.3,30.00,WSW,248,7.2,11.4,73,0.00,,,0.00,WUHU216HW,2013-11-11 16:27:00,
2013-11-11 11:32:00,34.9,26.7,29.99,WSW,248,7.6,11.4,72,0.00,,,0.00,WUHU216HW,2013-11-11 16:32:00,
2013-11-11 11:37:00,34.9,26.7,29.99,SW,225,4.9,8.7,72,0.00,,,0.00,WUHU216HW,2013-11-11 16:37:00,
2013-11-11 11:42:00,35.1,26.9,29.99,West,270,6.5,6.7,72,0.00,,,0.00,WUHU216HW,2013-11-11 16:42:00,
2013-11-11 11:47:00,35.5,27.3,29.99,SW,225,3.4,6.5,72,0.00,,,0.00,WUHU216HW,2013-11-11 16:47:00,
2013-11-11 11:52:00,35.5,27.3,29.99,WSW,248,4.0,7.4,72,0.00,,,0.00,WUHU216HW,2013-11-11 16:52:00,
2013-11-11 11:57:00,35.6,27.2,29.99,SSW,203,7.8,8.5,71,0.00,,,0.00,WUHU216HW,2013-11-11 16:57:00,
2013-11-11 12:03:00,35.8,27.4,29.99,WSW,248,4.5,8.5,71,0.00,,,0.00,WUHU216HW,2013-11-11 17:03:00,
2013-11-11 12:08:00,36.0,27.6,29.98,WSW,248,2.9,6.3,71,0.00,,,0.00,WUHU216HW,2013-11-11 17:08:00,
2013-11-11 12:13:00,36.0,27.6,29.97,WSW,248,4.9,5.8,71,0.00,,,0.00,WUHU216HW,2013-11-11 17:13:00,
2013-11-11 12:18:00,36.0,27.2,29.97,SW,225,7.2,8.1,70,0.00,,,0.00,WUHU216HW,2013-11-11 17:18:00,
2013-11-11 12:23:00,36.4,27.5,29.97,SSW,203,4.7,8.1,70,0.00,,,0.00,WUHU216HW,2013-11-11 17:23:00,
2013-11-11 12:28:00,36.7,27.9,29.97,SSW,203,3.8,7.2,70,0.00,,,0.00,WUHU216HW,2013-11-11 17:28:00,
2013-11-11 12:33:00,36.9,27.4,29.97,SW,225,2.5,7.2,68,0.00,,,0.00,WUHU216HW,2013-11-11 17:33:00,
2013-11-11 12:38:00,36.7,27.2,29.96,SSW,203,4.0,7.6,68,0.00,,,0.00,WUHU216HW,2013-11-11 17:38:00,
2013-11-11 12:43:00,37.1,27.9,29.95,SSW,203,4.7,7.6,69,0.00,,,0.00,WUHU216HW,2013-11-11 17:43:00,
2013-11-11 12:48:00,37.4,28.3,29.95,West,270,4.0,6.0,69,0.00,,,0.00,WUHU216HW,2013-11-11 17:48:00,
2013-11-11 12:53:00,38.0,28.4,29.94,South,180,4.7,6.0,68,0.00,,,0.00,WUHU216HW,2013-11-11 17:53:00,
2013-11-11 12:58:00,38.3,27.5,29.94,SSE,158,8.5,13.0,65,0.00,,,0.00,WUHU216HW,2013-11-11 17:58:00,
2013-11-11 13:03:00,38.0,27.6,29.95,South,180,9.8,13.0,66,0.00,,,0.00,WUHU216HW,2013-11-11 18:03:00,
2013-11-11 13:08:00,38.0,28.0,29.95,South,180,4.7,13.2,67,0.00,,,0.00,WUHU216HW,2013-11-11 18:08:00,
2013-11-11 13:13:00,37.8,27.8,29.94,South,180,2.2,13.2,67,0.00,,,0.00,WUHU216HW,2013-11-11 18:13:00,
2013-11-11 13:18:00,38.0,28.0,29.94,SW,225,3.6,5.8,67,0.00,,,0.00,WUHU216HW,2013-11-11 18:18:00,
2013-11-11 13:23:00,38.0,28.0,29.94,SSE,158,3.6,5.8,67,0.00,,,0.00,WUHU216HW,2013-11-11 18:23:00,
2013-11-11 13:28:00,38.5,27.7,29.94,South,180,8.7,12.8,65,0.00,,,0.00,WUHU216HW,2013-11-11 18:28:00,
2013-11-11 13:33:00,38.5,28.1,29.94,SSE,158,7.6,12.8,66,0.00,,,0.00,WUHU216HW,2013-11-11 18:33:00,
2013-11-11 13:38:00,38.5,28.1,29.94,South,180,6.7,12.1,66,0.00,,,0.00,WUHU216HW,2013-11-11 18:38:00,
2013-11-11 13:43:00,39.1,28.2,29.93,SW,225,8.1,8.5,65,0.00,,,0.00,WUHU216HW,2013-11-11 18:43:00,
2013-11-11 13:48:00,39.4,28.5,29.93,SSW,203,7.8,8.1,65,0.00,,,0.00,WUHU216HW,2013-11-11 18:48:00,
2013-11-11 13:53:00,39.6,28.0,29.93,SSW,203,4.7,8.5,63,0.00,,,0.00,WUHU216HW,2013-11-11 18:53:00,
2013-11-11 13:58:00,39.6,28.4,29.93,South,180,6.9,8.5,64,0.00,,,0.00,WUHU216HW,2013-11-11 18:58:00,
2013-11-11 14:03:00,39.6,28.0,29.93,SSW,203,6.0,8.1,63,0.00,,,0.00,WUHU216HW,2013-11-11 19:03:00,
2013-11-11 14:08:00,39.6,28.0,29.93,SSW,203,5.1,8.1,63,0.00,,,0.00,WUHU216HW,2013-11-11 19:08:00,
2013-11-11 14:13:00,39.6,28.0,29.93,WSW,248,3.1,7.6,63,0.00,,,0.00,WUHU216HW,2013-11-11 19:13:00,
2013-11-11 14:18:00,39.6,27.5,29.92,West,270,4.5,7.4,62,0.00,,,0.00,WUHU216HW,2013-11-11 19:18:00,
2013-11-11 14:23:00,39.8,28.2,29.92,SW,225,1.1,6.9,63,0.00,,,0.00,WUHU216HW,2013-11-11 19:23:00,
2013-11-11 14:28:00,40.0,28.4,29.92,SSW,203,7.6,7.6,63,0.00,,,0.00,WUHU216HW,2013-11-11 19:28:00,
2013-11-11 14:33:00,40.1,28.5,29.93,SSE,158,4.9,9.2,63,0.00,,,0.00,WUHU216HW,2013-11-11 19:33:00,
2013-11-11 14:38:00,40.0,28.4,29.92,SSE,158,5.4,9.2,63,0.00,,,0.00,WUHU216HW,2013-11-11 19:38:00,
2013-11-11 14:43:00,39.8,27.7,29.93,South,180,8.5,8.5,62,0.00,,,0.00,WUHU216HW,2013-11-11 19:43:00,
2013-11-11 14:48:00,39.6,28.0,29.92,South,180,6.0,8.5,63,0.00,,,0.00,WUHU216HW,2013-11-11 19:48:00,
2013-11-11 14:53:00,39.4,27.8,29.92,SSE,158,6.9,8.5,63,0.00,,,0.00,WUHU216HW,2013-11-11 19:53:00,
2013-11-11 14:58:00,39.4,27.8,29.92,South,180,4.7,8.5,63,0.00,,,0.00,WUHU216HW,2013-11-11 19:58:00,
2013-11-11 15:03:00,39.6,28.0,29.92,South,180,3.8,6.9,63,0.00,,,0.00,WUHU216HW,2013-11-11 20:03:00,
2013-11-11 15:08:00,39.6,28.0,29.92,SSW,203,3.1,6.9,63,0.00,,,0.00,WUHU216HW,2013-11-11 20:08:00,
2013-11-11 15:13:00,39.6,28.0,29.92,South,180,4.3,6.9,63,0.00,,,0.00,WUHU216HW,2013-11-11 20:13:00,
2013-11-11 15:18:00,39.2,27.6,29.92,SSE,158,4.7,6.9,63,0.00,,,0.00,WUHU216HW,2013-11-11 20:18:00,
2013-11-11 15:23:00,39.2,27.6,29.92,South,180,5.4,6.9,63,0.00,,,0.00,WUHU216HW,2013-11-11 20:23:00,
2013-11-11 15:28:00,39.1,27.5,29.92,SSW,203,4.7,6.0,63,0.00,,,0.00,WUHU216HW,2013-11-11 20:28:00,
2013-11-11 15:33:00,39.1,27.5,29.92,SSW,203,2.9,6.3,63,0.00,,,0.00,WUHU216HW,2013-11-11 20:33:00,
2013-11-11 15:38:00,39.1,27.5,29.91,SW,225,4.9,8.7,63,0.00,,,0.00,WUHU216HW,2013-11-11 20:38:00,
2013-11-11 15:43:00,38.9,27.3,29.92,SW,225,6.5,8.7,63,0.00,,,0.00,WUHU216HW,2013-11-11 20:43:00,
2013-11-11 15:48:00,38.7,27.1,29.91,SSW,203,6.9,8.3,63,0.00,,,0.00,WUHU216HW,2013-11-11 20:48:00,
2013-11-11 15:53:00,38.5,27.4,29.91,SSW,203,3.8,8.1,64,0.00,,,0.00,WUHU216HW,2013-11-11 20:53:00,
2013-11-11 15:58:00,38.5,28.1,29.90,South,180,6.9,9.8,66,0.00,,,0.00,WUHU216HW,2013-11-11 20:58:00,
2013-11-11 16:03:00,38.2,27.7,29.90,SSW,203,6.3,9.8,66,0.00,,,0.00,WUHU216HW,2013-11-11 21:03:00,
2013-11-11 16:08:00,38.2,28.2,29.90,South,180,4.7,9.8,67,0.00,,,0.00,WUHU216HW,2013-11-11 21:08:00,
2013-11-11 16:13:00,38.0,28.0,29.90,West,270,4.3,9.4,67,0.00,,,0.00,WUHU216HW,2013-11-11 21:13:00,
2013-11-11 16:18:00,37.8,28.2,29.90,SW,225,3.8,6.9,68,0.00,,,0.00,WUHU216HW,2013-11-11 21:18:00,
2013-11-11 16:23:00,37.8,28.2,29.90,South,180,4.0,6.9,68,0.00,,,0.00,WUHU216HW,2013-11-11 21:23:00,
2013-11-11 16:28:00,37.8,28.5,29.89,South,180,4.7,5.4,69,0.00,,,0.00,WUHU216HW,2013-11-11 21:28:00,
2013-11-11 16:33:00,37.8,28.5,29.89,SE,135,1.8,5.4,69,0.00,,,0.00,WUHU216HW,2013-11-11 21:33:00,
2013-11-11 16:38:00,37.8,28.5,29.89,SSE,158,0.0,3.4,69,0.00,,,0.00,WUHU216HW,2013-11-11 21:38:00,
2013-11-11 16:43:00,37.8,28.5,29.89,SSW,203,4.5,4.9,69,0.00,,,0.00,WUHU216HW,2013-11-11 21:43:00,
2013-11-11 16:48:00,37.8,29.0,29.89,SSW,203,7.4,8.5,70,0.00,,,0.00,WUHU216HW,2013-11-11 21:48:00,
2013-11-11 16:53:00,37.8,28.5,29.88,SSW,203,4.7,8.9,69,0.00,,,0.00,WUHU216HW,2013-11-11 21:53:00,
2013-11-11 16:58:00,37.8,29.0,29.88,SSW,203,10.1,10.1,70,0.00,,,0.00,WUHU216HW,2013-11-11 21:58:00,
2013-11-11 17:03:00,37.8,29.0,29.88,SSE,158,5.4,10.1,70,0.00,,,0.00,WUHU216HW,2013-11-11 22:03:00,
2013-11-11 17:08:00,37.6,28.8,29.87,SSE,158,2.7,10.1,70,0.00,,,0.00,WUHU216HW,2013-11-11 22:08:00,
2013-11-11 17:13:00,37.4,28.6,29.87,SE,135,1.1,7.2,70,0.00,,,0.00,WUHU216HW,2013-11-11 22:13:00,
2013-11-11 17:18:00,37.4,28.6,29.87,SE,135,3.1,7.2,70,0.00,,,0.00,WUHU216HW,2013-11-11 22:18:00,
2013-11-11 17:23:00,37.4,28.6,29.87,SE,135,3.4,4.7,70,0.00,,,0.00,WUHU216HW,2013-11-11 22:23:00,
2013-11-11 17:28:00,37.3,28.8,29.87,SSE,158,2.7,4.7,71,0.00,,,0.00,WUHU216HW,2013-11-11 22:28:00,
2013-11-11 17:33:00,37.3,28.8,29.87,SE,135,3.4,5.1,71,0.00,,,0.00,WUHU216HW,2013-11-11 22:33:00,
2013-11-11 17:38:00,37.1,28.6,29.87,South,180,0.4,5.1,71,0.00,,,0.00,WUHU216HW,2013-11-11 22:38:00,
2013-11-11 17:43:00,37.1,28.6,29.87,South,180,3.1,3.8,71,0.00,,,0.00,WUHU216HW,2013-11-11 22:43:00,
2013-11-11 17:48:00,37.1,28.6,29.87,SSE,158,2.0,3.4,71,0.00,,,0.00,WUHU216HW,2013-11-11 22:48:00,
2013-11-11 17:53:00,37.1,28.6,29.87,SE,135,4.7,4.7,71,0.00,,,0.00,WUHU216HW,2013-11-11 22:53:00,
2013-11-11 17:58:00,37.1,28.6,29.87,SE,135,5.6,6.9,71,0.00,,,0.00,WUHU216HW,2013-11-11 22:58:00,
2013-11-11 18:03:00,37.1,28.6,29.87,SSE,158,4.7,7.4,71,0.00,,,0.00,WUHU216HW,2013-11-11 23:03:00,
2013-11-11 18:08:00,37.3,28.8,29.86,SSW,203,3.4,7.4,71,0.00,,,0.00,WUHU216HW,2013-11-11 23:08:00,
2013-11-11 18:13:00,37.1,28.6,29.86,WSW,248,1.3,5.8,71,0.00,,,0.00,WUHU216HW,2013-11-11 23:13:00,
2013-11-11 18:18:00,37.1,28.6,29.86,SSW,203,1.8,5.8,71,0.00,,,0.00,WUHU216HW,2013-11-11 23:18:00,
2013-11-11 18:23:00,37.1,28.6,29.86,SW,225,0.9,2.0,71,0.00,,,0.00,WUHU216HW,2013-11-11 23:23:00,
2013-11-11 18:28:00,37.1,28.6,29.86,WNW,293,1.8,2.0,71,0.00,,,0.00,WUHU216HW,2013-11-11 23:28:00,
2013-11-11 18:33:00,37.1,28.6,29.85,WSW,248,0.9,2.2,71,0.00,,,0.00,WUHU216HW,2013-11-11 23:33:00,
2013-11-11 18:38:00,37.1,28.6,29.85,ESE,113,0.0,2.2,71,0.00,,,0.00,WUHU216HW,2013-11-11 23:38:00,
2013-11-11 18:43:00,37.1,28.6,29.85,WNW,293,0.7,0.9,71,0.00,,,0.00,WUHU216HW,2013-11-11 23:43:00,
2013-11-11 18:48:00,36.9,28.7,29.85,West,270,2.2,3.1,72,0.00,,,0.00,WUHU216HW,2013-11-11 23:48:00,
2013-11-11 18:53:00,36.7,28.5,29.85,SW,225,0.9,3.1,72,0.00,,,0.00,WUHU216HW,2013-11-11 23:53:00,
2013-11-11 18:58:00,36.7,28.5,29.85,NNW,338,0.9,2.7,72,0.00,,,0.00,WUHU216HW,2013-11-11 23:58:00,
2013-11-11 19:03:00,36.7,28.5,29.84,West,270,1.1,1.6,72,0.00,,,0.00,WUHU216HW,2013-11-12 00:03:00,
2013-11-11 19:08:00,36.5,28.7,29.84,West,270,0.0,1.6,73,0.00,,,0.00,WUHU216HW,2013-11-12 00:08:00,
2013-11-11 19:13:00,36.4,28.5,29.84,WNW,293,0.0,1.1,73,0.00,,,0.00,WUHU216HW,2013-11-12 00:13:00,
2013-11-11 19:18:00,36.4,28.5,29.84,WNW,293,0.0,0.4,73,0.00,,,0.00,WUHU216HW,2013-11-12 00:18:00,
2013-11-11 19:23:00,36.2,28.4,29.83,NNW,338,0.7,0.7,73,0.00,,,0.00,WUHU216HW,2013-11-12 00:23:00,
2013-11-11 19:28:00,36.0,28.2,29.83,North,0,0.4,0.9,73,0.00,,,0.00,WUHU216HW,2013-11-12 00:28:00,
2013-11-11 19:33:00,36.0,28.4,29.83,West,270,0.4,1.1,74,0.00,,,0.00,WUHU216HW,2013-11-12 00:33:00,
2013-11-11 19:38:00,36.0,28.2,29.82,WSW,248,0.0,1.1,73,0.00,,,0.00,WUHU216HW,2013-11-12 00:38:00,
2013-11-11 19:43:00,36.4,28.5,29.82,SE,135,0.4,1.8,73,0.00,,,0.00,WUHU216HW,2013-11-12 00:43:00,
2013-11-11 19:48:00,36.7,29.2,29.82,SW,225,0.0,1.8,74,0.00,,,0.00,WUHU216HW,2013-11-12 00:48:00,
2013-11-11 19:53:00,37.1,29.3,29.81,SSE,158,1.8,4.0,73,0.00,,,0.00,WUHU216HW,2013-11-12 00:53:00,
2013-11-11 19:58:00,37.4,29.3,29.81,SE,135,2.0,4.7,72,0.00,,,0.00,WUHU216HW,2013-11-12 00:58:00,
2013-11-11 20:03:00,37.8,29.3,29.81,SSW,203,2.5,4.7,71,0.00,,,0.00,WUHU216HW,2013-11-12 01:03:00,
2013-11-11 20:08:00,38.0,29.4,29.81,NW,315,0.4,4.7,71,0.00,,,0.00,WUHU216HW,2013-11-12 01:08:00,
2013-11-11 20:13:00,38.0,29.4,29.81,South,180,6.0,6.0,71,0.00,,,0.00,WUHU216HW,2013-11-12 01:13:00,
2013-11-11 20:18:00,38.2,28.9,29.81,South,180,1.8,6.0,69,0.00,,,0.00,WUHU216HW,2013-11-12 01:18:00,
2013-11-11 20:23:00,38.3,28.7,29.81,SSW,203,5.8,6.0,68,0.00,,,0.00,WUHU216HW,2013-11-12 01:23:00,
2013-11-11 20:28:00,38.5,29.3,29.81,SE,135,1.8,5.8,69,0.00,,,0.00,WUHU216HW,2013-11-12 01:28:00,
2013-11-11 20:33:00,38.5,29.3,29.81,SSW,203,6.9,6.9,69,0.00,,,0.00,WUHU216HW,2013-11-12 01:33:00,
2013-11-11 20:38:00,38.7,29.0,29.81,SW,225,4.3,6.9,68,0.00,,,0.00,WUHU216HW,2013-11-12 01:38:00,
2013-11-11 20:43:00,38.7,29.0,29.80,SSW,203,5.4,8.3,68,0.00,,,0.00,WUHU216HW,2013-11-12 01:43:00,
2013-11-11 20:48:00,38.9,28.8,29.80,South,180,5.1,8.3,67,0.00,,,0.00,WUHU216HW,2013-11-12 01:48:00,
2013-11-11 20:53:00,38.9,28.8,29.80,SW,225,5.1,6.7,67,0.00,,,0.00,WUHU216HW,2013-11-12 01:53:00,
2013-11-11 20:58:00,39.2,29.1,29.80,SSW,203,4.7,6.0,67,0.00,,,0.00,WUHU216HW,2013-11-12 01:58:00,
2013-11-11 21:03:00,39.2,29.1,29.80,SSW,203,5.8,6.0,67,0.00,,,0.00,WUHU216HW,2013-11-12 02:03:00,
2013-11-11 21:08:00,39.6,29.4,29.80,SSW,203,5.4,5.8,67,0.00,,,0.00,WUHU216HW,2013-11-12 02:08:00,
2013-11-11 21:13:00,39.6,29.1,29.80,SW,225,6.0,6.9,66,0.00,,,0.00,WUHU216HW,2013-11-12 02:13:00,
2013-11-11 21:18:00,40.0,29.4,29.79,SSW,203,4.5,8.3,66,0.00,,,0.00,WUHU216HW,2013-11-12 02:18:00,
2013-11-11 21:23:00,40.0,29.4,29.79,SW,225,5.4,13.4,66,0.00,,,0.00,WUHU216HW,2013-11-12 02:23:00,
2013-11-11 21:28:00,40.0,29.1,29.80,SSW,203,13.0,13.4,65,0.00,,,0.00,WUHU216HW,2013-11-12 02:28:00,
2013-11-11 21:34:00,40.0,29.4,29.79,SSW,203,6.9,13.0,66,0.00,,,0.00,WUHU216HW,2013-11-12 02:34:00,
2013-11-11 21:39:00,40.0,29.4,29.79,SW,225,10.5,10.5,66,0.00,,,0.00,WUHU216HW,2013-11-12 02:39:00,
2013-11-11 21:44:00,40.1,29.6,29.79,SSW,203,8.5,10.5,66,0.00,,,0.00,WUHU216HW,2013-11-12 02:44:00,
2013-11-11 21:49:00,40.1,30.0,29.79,SSW,203,8.5,10.5,67,0.00,,,0.00,WUHU216HW,2013-11-12 02:49:00,
2013-11-11 21:54:00,40.1,30.0,29.79,SSW,203,6.3,9.8,67,0.00,,,0.00,WUHU216HW,2013-11-12 02:54:00,
2013-11-11 21:59:00,40.0,29.8,29.79,SSW,203,8.7,11.2,67,0.00,,,0.00,WUHU216HW,2013-11-12 02:59:00,
2013-11-11 22:04:00,40.0,29.8,29.79,SSW,203,5.4,11.2,67,0.00,,,0.00,WUHU216HW,2013-11-12 03:04:00,
2013-11-11 22:09:00,40.0,29.8,29.79,South,180,4.9,9.8,67,0.00,,,0.00,WUHU216HW,2013-11-12 03:09:00,
2013-11-11 22:14:00,40.0,30.3,29.78,South,180,4.9,9.8,68,0.00,,,0.00,WUHU216HW,2013-11-12 03:14:00,
2013-11-11 22:19:00,40.0,30.3,29.78,South,180,5.4,10.3,68,0.00,,,0.00,WUHU216HW,2013-11-12 03:19:00,
2013-11-11 22:24:00,40.0,30.6,29.78,SSW,203,2.7,10.3,69,0.00,,,0.00,WUHU216HW,2013-11-12 03:24:00,
2013-11-11 22:29:00,40.0,31.0,29.78,SSW,203,6.5,9.2,70,0.00,,,0.00,WUHU216HW,2013-11-12 03:29:00,
2013-11-11 22:34:00,40.0,31.0,29.78,South,180,6.0,8.5,70,0.00,,,0.00,WUHU216HW,2013-11-12 03:34:00,
2013-11-11 22:39:00,40.0,31.0,29.78,WSW,248,4.7,8.1,70,0.00,,,0.00,WUHU216HW,2013-11-12 03:39:00,
2013-11-11 22:44:00,40.0,31.3,29.78,SSW,203,5.4,9.2,71,0.00,,,0.00,WUHU216HW,2013-11-12 03:44:00,
2013-11-11 22:49:00,40.0,31.3,29.78,SSW,203,3.4,9.4,71,0.00,,,0.00,WUHU216HW,2013-11-12 03:49:00,
2013-11-11 22:54:00,40.0,31.3,29.77,SW,225,5.1,9.4,71,0.00,,,0.00,WUHU216HW,2013-11-12 03:54:00,
2013-11-11 22:59:00,40.0,31.3,29.77,SW,225,4.7,7.8,71,0.00,,,0.00,WUHU216HW,2013-11-12 03:59:00,
2013-11-11 23:04:00,40.0,31.3,29.77,SW,225,4.5,7.8,71,0.00,,,0.00,WUHU216HW,2013-11-12 04:04:00,
2013-11-11 23:09:00,40.0,31.3,29.77,South,180,4.7,6.9,71,0.00,,,0.00,WUHU216HW,2013-11-12 04:09:00,
2013-11-11 23:14:00,40.0,31.3,29.77,SSW,203,6.9,7.8,71,0.00,,,0.00,WUHU216HW,2013-11-12 04:14:00,
2013-11-11 23:19:00,40.0,31.3,29.77,South,180,8.1,8.1,71,0.00,,,0.00,WUHU216HW,2013-11-12 04:19:00,
2013-11-11 23:24:00,40.0,31.0,29.78,SSW,203,6.7,8.1,70,0.00,,,0.00,WUHU216HW,2013-11-12 04:24:00,
2013-11-11 23:29:00,40.0,31.0,29.78,SW,225,3.4,8.1,70,0.00,,,0.00,WUHU216HW,2013-11-12 04:29:00,
2013-11-11 23:34:00,40.0,31.0,29.77,SW,225,4.0,6.9,70,0.00,,,0.00,WUHU216HW,2013-11-12 04:34:00,
2013-11-11 23:39:00,40.0,31.0,29.77,SSW,203,4.0,7.2,70,0.00,,,0.00,WUHU216HW,2013-11-12 04:39:00,
2013-11-11 23:44:00,40.0,31.0,29.77,South,180,5.1,7.2,70,0.00,,,0.00,WUHU216HW,2013-11-12 04:44:00,
2013-11-11 23:49:00,40.0,31.0,29.77,South,180,11.4,11.4,70,0.00,,,0.00,WUHU216HW,2013-11-12 04:49:00,
2013-11-11 23:54:00,40.1,31.1,29.77,SSW,203,4.0,11.4,70,0.00,,,0.00,WUHU216HW,2013-11-12 04:54:00,
2013-11-11 23:59:00,40.1,31.1,29.77,SSW,203,5.4,10.5,70,0.00,,,0.00,WUHU216HW,2013-11-12 04:59:00,